Regional Weather Roundup
Issued by NWS

Home | Current Version | Previous Version | Text Only | Print | Product List | Glossary Off
Versions: 1 2 3 4 5 6 7 8 9 10 11 12 13 14 15 16 17 18 19 20 21 22 23 24 25 26 27 28 29 30 31 32 33 34 35 36 37 38 39 40 41 42 43 44 45 46 47 48 49 50

000
ASUS43 KFSD 280502
RWRSD

WEATHER ROUNDUP FOR SOUTH DAKOTA
NATIONAL WEATHER SERVICE SIOUX FALLS SD
1200 AM CDT THU APR 28 2016

NOTE: "FAIR" INDICATES FEW OR NO CLOUDS BELOW 12,000 FEET WITH NO
SIGNIFICANT WEATHER AND/OR OBSTRUCTIONS TO VISIBILITY.


SDZ001>005-009-010-012>017-280600-
NORTHWEST AND NORTH CENTRAL SOUTH DAKOTA

CITY           SKY/WX    TMP DP  RH WIND       PRES   REMARKS
BUFFALO          N/A     34  32  92 N9        29.92S WCI  27
FAITH            N/A     32  30  92 N13       29.93R WCI  22
MOBRIDGE       LGT RAIN  39  36  89 NE12      29.91F
$$

SDZ012>016-024>037-041>051-057-063-072>074-280600-
SOUTHWEST AND SOUTH CENTRAL SOUTH DAKOTA

CITY           SKY/WX    TMP DP  RH WIND       PRES   REMARKS
RAPID CTY ARPT FLURRIES  32  31  96 N15       29.93S WCI  22
PIERRE         LGT RAIN  35  33  92 NE16      29.87S WCI  25
CUSTER         CLOUDY    27  21  78 N10G20    29.86R WCI  17
PHILIP         FLURRIES  34  32  92 N12       29.91R WCI  25
PINE RIDGE     CLOUDY    32  29  88 N7        29.90R WCI  26
WINNER         LGT RAIN  40  36  86 N12       29.82S
$$

SDZ004>011-016>023-039-040-280600-
NORTHEAST SOUTH DAKOTA

CITY           SKY/WX    TMP DP  RH WIND       PRES   REMARKS
ABERDEEN       RAIN      37  33  85 NE18G28   29.93S
WATERTOWN      CLOUDY    41  36  82 NE14      29.84R
BROOKINGS      LGT RAIN  40  38  93 E15G22    29.80S
SISSETON         N/A     39  32  76 NE12      29.92S
$$

SDZ017-020-022-023-036>040-048>070-280600-
SOUTHEAST SOUTH DAKOTA

CITY           SKY/WX    TMP DP  RH WIND       PRES   REMARKS
SIOUX FALLS    LGT RAIN  42  39  89 E15       29.76R FOG
HURON          LGT RAIN  40  39  97 NE12      29.85S
MITCHELL       LGT RAIN  42  41  96 N10       29.81S
YANKTON        CLOUDY    43  39  87 NE15G21   29.73R
$$

ABBREVIATIONS USED IN REMARKS
   TC - TEMPERATURE IN CELSIUS
  WCI - WIND CHILL INDEX
   HX - HEAT INDEX
  VSB - VISIBILITY





USA.gov is the U.S. government's official web portal to all federal, state and local government web resources and services.